CAPE
2599 2709 2664 2370 2290 2329 2368 2463 2582 2729 3005 2906 3236 3383 3209 3402 3750 3781 3950 3960 3602 3032 3412 2924 3276 3215 3199 2481 2337 2349 2250 2567 2846 2827 2896 3058 3138 3003 2973 2917 3068 3155 3137 3093 3036 3102 3009 2917 2875 3040 3108 2998 3027 3085 3096 3125 3217 3324 3501 3536 3489 3507 3509 3468 3609 3704 3798 3761 3775 3874 4002 4077 4147 3965 3796 3873 3834 3941 3968 3752 3655 3681 3647 3525 3450
2592 2748 2388 2546 2520 2447 2545 2512 2618 2892 2863 2934 3352 3544 3465 3695 3985 4021 3759 3796 3365 3448 3822 3141 2289 2085 2950 2496 2040 1569 2406 2634 2864 2813 2999 3100 3244 3083 2957 3209 3048 3152 3272 3226 3262 3346 3410 3429 3273 3278 3318 3334 3360 3342 3491 3656 3697 3757 3650 3659 3687 3712 3799 3815 3788 3777 3789 3958 4136 4309 4365 4370 4385 4469 4444 4251 4252 4203 4123 3985 3848 3780 3652 3604 3375
2352 2543 2713 2912 2733 2752 2643 2824 2654 2775 3029 2858 3197 3582 3820 3780 3830 3660 3681 3849 3749 3554 3817 3340 3116 2612 2476 2153 1659 1883 2014 2462 2115 2355 2266 3107 3161 3058 2930 2916 3156 3088 3479 3460 3562 3603 3661 3800 3851 3826 3783 3775 3808 3867 3900 3864 3930 4020 3975 3968 3913 3834 3737 3906 3986 4022 4105 4193 4224 4343 4338 4427 4430 4434 4367 4255 4257 4257 4125 3975 3910 3730 3477 3354 3203
2855 2995 2952 3239 3179 2927 2955 2813 2671 2782 3004 3038 3204 3648 4017 4088 4429 4738 4746 4460 3812 3800 3887 3668 3410 2807 2888 1999 1776 1664 1856 2008 1567 1743 2092 2745 3326 3204 2829 2261 2841 3036 3149 3756 3920 3866 3946 4060 4071 4154 4192 4105 4093 4040 3966 3969 4080 4178 4290 4434 4290 3767 3909 3998 4258 4250 4231 4267 4323 4327 4356 4312 4321 4304 4223 4318 4338 4226 4162 4094 3855 3724 3534 3296 3171
3131 3130 3135 3297 3214 3248 2564 2788 2702 3001 3171 3733 4194 4463 4194 3982 3704 4208 3882 3632 3147 3340 3891 3530 3225 3136 2753 1789 1626 1613 1898 2071 2004 1826 1644 2115 2928 2923 3005 2618 2219 2896 2781 2932 3329 4020 4366 4391 4448 4480 4496 4553 4587 4615 4541 4494 4479 4557 4685 4866 4744 4512 4445 4384 4325 4311 4300 4348 4323 4295 4263 4250 4312 4347 4344 4306 4327 4290 4000 3942 3815 3680 3551 3194 2926
2951 3165 3346 3018 3140 2928 2750 2536 2932 3547 3964 4659 3935 4163 3835 4024 3764 3687 3886 3743 3309 3440 3600 3415 2850 2554 2153 1814 1941 1952 1799 1633 1752 1695 1780 1816 2212 2789 2935 3145 2912 2431 2420 2938 2830 3210 3581 3975 4345 4692 4827 4774 4715 4728 4808 4963 5166 5201 5163 5075 5116 5090 5075 5003 4936 4807 4640 4221 4092 4277 4254 4323 4351 4349 4300 4252 4314 4312 4187 4058 3866 3705 3386 3195 2913
2971 3136 2990 3138 2443 2428 2582 2590 3124 3856 3816 4437 4459 4035 3952 3891 4114 3764 3751 3182 2987 3825 3742 3368 3154 2546 2162 2056 1802 1664 1763 1598 1921 1813 1962 2160 2361 2078 2658 2934 2948 2869 2624 2489 3413 3189 3101 3540 3761 3959 4048 4445 4780 4902 4846 5108 5064 5040 5140 5240 5140 5101 5007 4950 5015 5100 5027 4787 4543 4414 4347 4409 4430 4370 4325 4382 4308 4148 4001 3912 3853 3642 3524 3217 2794
3265 3235 3032 2790 2522 2380 2593 3111 3720 3821 4149 4452 4467 3914 4237 4146 3989 4242 4020 3000 3468 2452 3402 3776 3296 2379 2064 2239 2183 2166 2148 1909 1802 1625 1592 2068 2182 2500 2651 2974 3006 2973 2831 2766 3036 3316 3089 3002 3414 3842 3862 4117 4422 4531 4991 5370 5317 5131 5092 5091 5032 4806 4714 4855 5080 5156 5105 5027 4846 4783 4781 4757 4670 4631 4598 4507 4362 4216 4117 4043 3969 3790 3580 3227 3015
3490 3598 3199 2674 2569 2416 2497 2939 3796 4118 4406 4160 3934 4118 4116 3172 4640 4688 4918 4945 3370 2493 2788 3594 2853 2164 1599 1171 1418 2214 1749 2154 1824 1660 1753 2103 2350 2122 2316 2518 2949 2790 3385 3300 3397 3264 3789 2975 3051 3356 3556 3721 3728 4093 4640 4916 4751 4802 5158 5369 5089 4590 4410 4542 4930 5074 5119 5074 5127 5004 5116 5099 4903 4904 4871 4746 4554 4383 4284 4203 4044 3751 3500 3163 2920
3623 3727 3525 2857 2766 2678 2776 3276 3698 4308 4382 4186 3978 3868 4289 4184 4343 4948 4807 4895 4096 3238 3028 2882 2277 1302 1164 992 1714 1463 1627 2339 2253 2191 2495 2390 2595 2433 2210 2052 2245 2014 2284 2342 2334 3462 3533 3400 2885 2867 3158 3541 3633 3518 3818 4364 4811 4938 5125 5389 5376 4911 4801 4748 4821 4959 5215 5277 5315 5420 5318 5277 5182 5142 5118 4996 4859 4617 4403 4266 4105 3896 3764 3343 2757
3608 3821 3652 2943 2750 2974 3055 3480 3724 4314 4396 3538 3510 3967 4306 4551 4436 4701 5882 4900 4664 4208 3563 3144 2400 1555 853 870 1000 1442 1667 1824 2481 2334 2205 1633 1650 1944 2010 2576 2371 2408 2857 3044 2764 3432 3922 4010 4326 4285 4392 3344 3189 3406 3692 4059 4480 4780 5073 5282 5462 5740 4972 4763 4548 4643 5056 5330 5400 5550 5754 5676 5459 5412 5316 5224 5043 4669 4512 4372 4178 4082 3970 3780 3409
3645 3686 3626 3488 3149 3227 3458 3489 3727 4168 4229 3474 3652 3898 4948 5099 4842 4814 5400 4740 4224 4382 3847 2882 2226 1662 1342 1019 1092 1176 1420 1830 2144 1964 2062 2047 1934 2175 1696 1821 2415 2379 2242 2630 3016 2631 3490 4344 4840 4604 4279 3788 3344 3473 3832 3952 4099 4404 4584 4848 5432 5225 5384 5349 4623 4594 4948 5362 5642 5573 5582 5629 5644 5553 5449 5362 5044 4734 4502 4202 3965 3652 4119 3941 3746
3777 3734 3325 3575 3801 3956 3977 3613 3670 4041 4192 4284 4778 4655 5015 5171 5147 5552 4912 4309 3374 3691 3920 2587 2815 1473 1880 910 1047 1855 1668 2768 2010 1534 1363 1519 1880 2392 2400 2101 2183 2406 2795 2490 2791 2488 2502 3952 4436 4474 4668 5088 4840 3924 3396 3333 3663 3920 3834 4207 4668 5074 5268 5359 4991 4831 4847 5429 5472 5251 5172 5266 5352 5425 5316 5149 4964 4837 4682 4431 4154 4010 3903 4049 3958
3836 3904 3878 3952 4032 3698 3853 3556 3940 4044 4554 4921 4709 4782 4849 4668 5090 5420 5052 3868 3935 3394 3447 3872 1805 837 980 1074 1228 1523 1894 1405 992 1040 1304 1410 1529 1893 2139 1800 1335 1510 2113 2429 2634 2426 2191 2400 3820 3240 4063 4516 4407 4367 5320 4812 4802 3612 3601 3666 4139 4555 4806 5170 5327 5151 5019 5257 5065 4746 4663 4618 4726 4967 5101 5048 4916 4805 4634 4462 4289 4245 4143 3986 3883
3887 3972 4060 4125 4169 4134 3541 3662 3857 4187 4269 4080 4052 4180 4408 4444 4939 4828 4534 4124 3816 3594 3972 3769 907 1420 1816 2302 1679 2091 1886 2022 1543 1338 966 1074 1280 1243 1409 1374 1454 1693 2009 1959 2308 2761 2023 1907 2326 3090 3591 3902 3836 4239 4579 3628 3860 3568 3512 3651 3769 4226 4718 4877 5003 5272 5258 5514 5221 5047 4943 4827 4776 4704 4670 4676 4682 4661 4599 4467 4353 4262 4136 4048 3963
3538 3711 3859 4246 4437 4151 3399 3590 4240 4598 4431 4094 3912 3908 4151 4216 4438 4611 5073 3473 2463 2701 3158 3430 2408 1853 1342 1490 1574 1616 1060 1733 1605 1486 936 1037 908 944 959 1137 1276 2110 2162 2236 1712 2050 2636 2771 2210 3084 3473 3492 3455 4021 4053 4322 4088 4204 4545 4431 4014 3676 3935 4390 4676 4904 5254 5478 5023 4830 4711 4582 4542 4538 4558 4441 4385 4480 4472 4384 4286 4220 4149 4072 4038
3448 3624 3590 4244 4537 4381 4086 3798 4143 4574 4084 3803 3754 3430 3925 3873 4743 4842 4624 4079 2949 2621 2718 2887 3159 2902 2042 3134 1971 1709 986 1209 941 1903 780 698 880 1003 1474 1204 1310 2049 1681 1639 2224 2197 1879 1968 2757 3116 3414 3527 3501 3612 3678 4092 4368 5254 5150 4591 4350 3721 3762 4262 4591 4731 4928 5134 4782 4579 4483 4435 4478 4447 4521 4582 4592 4484 4386 4286 4194 4124 4096 4054 4020
3181 3265 3378 4054 4349 4435 4153 3948 4232 4387 4116 3664 3665 3874 3573 3512 4316 4506 4282 4374 4306 3449 2142 2911 2855 3441 3061 2251 1950 1470 1727 1798 1639 1969 2491 819 1056 1254 1548 1511 1757 1625 2425 1951 2011 2084 2427 2117 3048 2962 2856 2774 2992 3422 3779 4303 4990 5136 5434 4771 3881 3711 3608 3597 3878 4086 4553 4948 4496 4441 4496 4375 4215 4209 4355 4489 4612 4495 4420 4263 4077 4026 4049 4058 4040
2830 3071 3318 4111 4453 4447 4270 4036 4063 4168 4030 3935 3722 3374 3057 3720 4131 4278 4290 4906 5028 4168 3176 2314 3526 3008 2250 2220 2475 2549 1620 2018 2029 2396 1601 1556 1048 1164 1502 1509 1526 1604 1654 1645 1732 1906 2243 2717 2404 2406 2585 3139 3370 3734 4075 3840 3556 3452 3665 3714 2972 3125 3185 3225 3347 3652 4206 4805 4535 4287 4057 3930 3893 3790 3705 3775 4058 4196 4097 4059 3948 3899 3930 3941 3945
3004 3486 3626 3899 4095 4208 4346 4084 4015 3666 3664 3734 3704 3552 3485 3866 4434 4430 4712 4900 4868 4107 3831 3150 3169 2521 2631 2363 2548 3238 2589 1854 1940 1648 1803 1506 1209 1162 998 928 1195 1362 1599 1719 1890 2233 2328 2658 2083 2130 2636 3117 3415 3382 3222 4022 4319 4289 3918 2667 3083 3336 3475 3322 3063 3379 3848 4408 3913 3601 3539 3566 3537 3448 3403 3540 3619 3743 3802 3841 3892 3866 3938 4092 3918
3407 3402 3863 3909 3984 4198 4340 4135 3790 3712 3675 3611 3650 3488 3285 3661 4161 4292 4391 4369 4298 4405 4758 4252 3351 2445 3181 2734 2628 2396 2308 2021 2357 2365 1895 1522 1058 1206 1463 1290 1277 1532 1870 1837 2002 2250 2616 2941 3016 2482 2923 3100 3344 3460 2974 3511 3908 4543 2924 3011 3361 3162 3133 2820 2831 3419 3408 3165 3246 2950 3200 3136 3164 3290 3324 3356 3356 3469 3437 3492 3757 4103 4206 4042 3963
3282 3726 4033 3990 3932 4184 4055 3847 3636 3220 3394 3762 3687 3660 3581 3796 3911 3990 4282 4088 4465 4272 4126 4306 4040 3719 3025 3562 3838 3233 2630 2227 1708 1670 1627 1895 1319 1269 1348 1436 1637 1920 1954 1802 2035 2265 2439 2443 2430 2493 2720 2835 3147 3588 3437 3284 3432 2320 2935 2706 2463 2582 2595 2675 2672 2982 2703 2538 2659 3080 3142 2798 2936 3074 3221 3264 3307 3316 3213 3123 3293 3580 3935 3993 4008
2720 3334 3562 3501 3721 3939 3706 3486 3346 3452 3584 3699 3690 3075 2799 3155 3522 4483 4120 4061 3800 4082 3804 4180 4181 4592 3355 3590 3120 1936 2453 2164 2010 1999 1564 1624 1756 1407 1366 1594 1509 1652 1898 1857 2210 2197 2224 2134 2144 2293 3018 2645 2954 2994 3224 3445 2339 2319 2958 1961 1913 1914 2250 2515 2593 2415 1971 2152 2353 2891 2880 2709 2772 2918 2979 3063 3030 3055 3047 3019 3076 3213 3562 3630 3632
3516 3121 3056 2871 3591 3796 3745 3639 3731 3491 3381 3502 3409 3181 2963 3217 3681 4125 3707 3916 4087 3883 3821 3518 3280 3668 3194 2608 2592 1843 2105 2112 1643 2104 2397 2252 1907 1719 1695 1810 1852 1569 1648 2233 2016 1923 2114 2124 1998 2153 2290 2742 2724 3798 3587 3107 2824 2076 2829 2002 1550 1546 1922 2534 2813 2150 2129 2062 2133 2270 2288 2261 2393 2571 2847 2914 2977 2895 2766 2972 3052 3173 3192 3397 3451
3472 3080 2651 2948 3501 3676 3724 3849 3840 3679 3682 3827 4043 3929 3730 3317 3424 3386 3552 3590 3628 3596 3422 3192 3204 3515 2850 2796 2519 2172 2164 2319 2043 1829 1981 2127 2256 2004 1854 1746 1752 1657 1893 2060 1912 2122 2066 2255 1970 1900 2223 2367 2186 3119 2716 2062 2486 2208 2496 2510 1081 1443 1613 2088 2289 2086 1847 1837 1922 2001 2239 2368 2323 2468 2486 2444 2477 2452 2582 2788 2978 3024 2957 3014 3285
2981 3205 2745 2593 3077 3339 3714 3608 3809 3669 3829 3914 3940 4071 4107 3614 3358 3300 2856 3710 3852 4034 3708 3190 3398 3540 3324 3028 2684 2435 2486 2623 2455 2245 1898 1757 2033 1842 2288 2393 1862 1733 2247 2226 2356 1959 1945 2260 1965 2101 1927 2348 2110 2576 2909 1871 2042 2118 2019 2616 2012 1812 2077 2297 2217 2012 1888 1873 1948 2007 2078 2318 2475 2593 2459 2503 2482 2519 2591 2658 2821 2917 2803 2701 2819
3014 3206 3331 3409 3368 3456 3574 3503 3641 3768 3775 3887 3580 3878 4589 4144 3835 3710 3536 3332 3500 3637 3217 2979 2633 3083 3408 3501 3103 2620 2839 2987 2522 2535 2299 2154 2111 2119 2536 2472 1952 1880 1880 2235 2171 2369 1975 2315 1954 1643 2113 3118 2511 2766 2770 2129 1984 1929 2352 2760 2701 1766 1996 2019 2048 2030 1928 1881 1923 1968 1967 2011 2005 2326 2359 2347 2291 2393 2450 2530 2597 2671 2696 2635 2508
3285 3276 3187 3169 3304 3326 3479 3382 3689 3418 3586 3646 3716 3351 4051 3705 3908 3957 3770 2990 3582 3550 3424 3212 2984 3160 3059 3632 3430 2798 2912 2816 2799 2672 2796 2823 2860 2844 2729 2880 2645 2152 2138 2278 2063 2323 1944 2141 1978 1825 1639 2194 2970 1812 2018 2067 2172 2199 2752 2764 3328 2867 1813 1881 1888 1911 1908 1866 1900 1928 1863 1849 2159 2333 2177 2102 2112 2167 2290 2338 2308 2297 2256 2312 2465
3032 3084 2996 3473 3437 3392 3234 2988 3408 3598 3440 3606 3363 3519 4201 3618 3194 3793 3484 3105 3581 3452 3324 3272 3254 2755 2705 3026 3212 3180 3182 3654 3336 2987 3684 3911 3262 3250 2848 2542 2983 2700 2632 2220 2731 1795 2559 2000 1408 1825 1825 2238 2787 1603 1613 2139 1789 2294 2814 2892 3104 2764 1768 1787 1839 1814 1840 1839 1852 1902 1856 1946 2253 2289 2137 2050 2028 2032 2085 2139 2092 1988 1810 1701 1644
2750 2481 2833 3052 3444 3771 3450 3309 3108 3228 3268 3048 3212 3475 4252 3802 3349 3679 3309 3764 3649 3590 3557 3135 2990 2993 2888 2705 2794 2840 3308 3209 2930 3006 3658 3929 3335 3132 3137 3242 3217 2821 2931 2492 2470 2248 2216 2208 1864 1390 2124 1880 828 958 930 1852 1516 2140 3043 2875 2561 2494 1699 1908 1793 1808 1795 1791 1814 1839 1879 2003 2190 2264 2173 2076 2013 1944 1961 1960 1950 1884 1938 1729 1569
3280 3318 3285 2787 3081 3272 3694 3191 3207 3380 3393 3144 3496 3572 3993 3597 3312 3214 3587 4088 3705 3458 3513 3456 2988 3167 3478 3161 3202 3022 3308 3338 3376 3113 3446 3375 3360 3276 3408 3484 3254 2906 3113 3344 2483 3296 2057 2153 1889 1391 1380 1553 1087 992 526 1150 1817 2001 2660 2934 2850 1895 2084 2973 2143 1926 1774 1762 1766 1790 1859 1959 2013 2068 2103 2096 2033 1994 1936 1902 1846 1793 1725 1879 1803
2648 3195 2987 2816 2653 2630 2705 2739 2680 2703 2857 2942 2871 3266 3696 3460 3085 2981 3137 3358 3299 3455 3209 3117 2841 3218 3688 3528 3673 3493 3451 3731 3632 3413 3309 3226 3131 3066 3055 3324 3708 3373 3506 3514 2978 2273 2599 1986 1442 1066 1085 1082 1654 1169 1322 1129 1959 2247 2915 2827 3290 2554 2975 2453 2513 2233 1796 1667 1739 1706 1800 1877 1937 1928 1946 1979 2044 2031 1986 1929 1845 1761 1680 1620 1793
2566 2746 3048 3059 3044 2735 2515 2668 2484 2680 3060 2926 3000 3362 3643 3758 3584 3508 3291 3416 3464 3295 3475 3461 3168 3257 3738 3900 3841 3826 3887 3588 3352 2999 2610 2684 2909 3073 3284 3214 2912 3531 3454 3579 2976 2659 2749 2575 1992 1140 1039 1595 750 1644 1169 949 1238 2217 2262 2562 3141 2823 2647 2747 2708 2430 1773 1682 1679 1633 1754 1764 1793 1816 1859 1883 1944 1966 1981 1958 1904 1823 1738 1676 1620
2877 2550 2786 2627 2903 2755 2638 2699 2890 2704 3009 3605 2866 2830 3330 3493 3226 2892 3200 3454 3517 3511 3421 3626 3553 3286 3533 3754 3642 3479 3717 3679 3187 2707 2443 2426 2460 2566 2787 2692 2535 2632 3630 3135 3247 3188 2512 2054 1863 1454 1409 1806 1073 1911 1726 1670 1946 2602 2444 2212 2292 2649 2613 2626 2536 2207 1888 1656 1612 1597 1663 1624 1563 1589 1607 1644 1676 1679 1653 1627 1591 1557 1514 1476 1470
2793 2681 2607 2545 2866 3062 2895 2926 3188 3034 3289 3045 2966 3344 3428 3514 3193 2768 2664 3040 3256 3130 3013 3331 3201 3206 3375 3446 3217 3274 3107 3062 3269 3017 2786 2737 2624 2592 2453 2455 2358 2214 2856 3339 3104 2669 2086 2134 2392 1178 1168 1942 1782 1336 1531 1981 2670 2773 2876 2268 2305 2423 2545 2493 2357 2248 2020 1699 1659 1598 1540 1440 1346 1278 1345 1408 1325 1340 1305 1237 1286 1433 1470 1494 1476
2437 2926 2793 2685 2795 3487 3285 3327 3453 3389 3352 3198 3173 3346 3681 3475 3094 3218 3231 3407 3245 3090 3068 3060 2960 3098 2974 3125 3024 3102 3570 3592 3606 3387 3016 2627 2518 2551 2356 2273 2508 2138 2475 3125 3455 2970 2511 2182 2506 2133 1870 1878 1897 1582 1769 2437 2442 2590 2274 2523 2519 2711 2821 2395 2199 2143 2095 1747 1709 1643 1628 1407 1168 1304 1285 1216 1232 1281 1241 1158 1086 1209 1375 1456 1496
2578 2665 3077 3185 3229 3476 2977 3088 3383 3486 3472 3383 3557 3215 3100 3104 3110 2961 3038 3313 3299 3227 3192 3255 3394 3450 3458 3276 3060 3289 3804 3625 3477 3061 2572 2336 2301 2488 2323 2375 2823 2599 2961 3122 3442 3276 3086 2774 2512 3269 3103 2444 2230 1901 2303 2464 2417 2462 2750 3183 2841 2862 3160 2714 2047 1726 1648 1724 1560 1582 1656 1155 1141 1248 1108 938 930 1135 1132 1088 993 985 1092 1298 1404
2857 2748 2718 2904 2883 3182 3086 2912 3098 3461 3717 3745 3768 3652 3129 3171 3200 3149 3256 3320 3179 3234 3192 3096 3290 3413 3282 3338 3302 3383 3444 3501 3144 2990 3094 3317 3155 2403 2410 2842 3021 2979 3210 3246 3306 3284 3174 2942 2934 2477 3115 2246 2098 2526 2656 2880 2457 2216 2498 2760 3002 3530 3127 2789 2456 2107 2046 2129 2283 1935 1319 1095 1208 1100 954 765 679 706 958 1035 978 975 1020 1126 1303
2741 2643 2577 2809 2930 2883 3102 3050 2906 3334 3735 3602 3889 3921 3592 3332 3314 3502 3234 3353 3330 3276 3319 3120 3140 3188 3105 3119 3268 3422 3528 3572 3214 3060 3087 2930 2482 2272 3002 3547 2990 3161 2659 2791 2983 2855 2755 2581 2316 2526 2320 2372 2187 2015 2828 3093 3020 2757 2829 2839 2702 2712 2813 2674 2629 2327 2069 2119 1808 1482 1092 1139 1067 1102 797 719 660 628 692 941 977 964 1093 1303 1204
2640 2581 2612 2608 2807 2908 2903 2952 3184 3326 3683 3681 3864 4047 3761 3499 3329 3446 3420 3227 3204 3311 3240 3242 3192 3005 3063 3164 3125 3229 3259 3472 3585 3401 3316 3154 3061 2640 2517 3303 3575 3302 2882 2555 2772 2741 2792 2124 2210 1886 2348 2678 2452 2363 2711 3485 3188 3230 2997 2527 2148 2027 2228 2142 2297 2207 2024 2058 2007 1887 1008 412 1094 1131 506 385 535 551 379 216 442 817 1294 1338 1300
2364 2510 2760 2657 2678 2692 2734 2998 3162 3195 3068 3313 3320 3546 3641 3811 3593 3156 3308 3370 3368 3296 3367 3109 3017 3030 3070 3047 3047 3067 3301 3947 3950 3595 3312 3132 3016 3412 3918 4287 4242 3639 3602 3217 3398 3323 3458 2845 2775 2979 2674 2504 2374 2581 2524 2920 2792 2824 2613 2386 2022 1877 1736 1707 1988 2031 1807 1572 1717 1644 1174 48 569 1156 684 7 0 0 0 0 0 0 742 1064 1276
2564 2781 2840 2884 2690 2618 2668 2916 3061 2878 2901 2929 3260 3133 3066 3206 3480 3194 3063 3475 3492 3337 3482 3505 2976 2879 2814 2771 2742 3093 3426 3602 3959 4196 4406 4461 4138 4253 3929 3442 4473 4150 3868 3420 3331 3164 3042 2798 2032 1687 1482 1246 980 1729 2333 2387 2645 2637 2462 2128 1777 1696 1663 1544 1493 1722 1561 1514 1490 1576 1372 0 127 909 954 55 0 0 0 0 0 0 0 0 491
2900 3047 3081 2801 2698 2460 2397 2409 2508 2498 2502 2562 2909 2420 2278 2248 3038 3190 3472 2651 3114 3893 3544 3653 3535 2894 2873 2811 2870 3018 3558 3557 3681 3983 5394 4551 4489 4126 4027 4398 4669 3854 2545 2578 2389 2414 2516 1966 1642 1491 1118 1354 1657 1956 2136 2030 2213 2140 2048 1819 1592 1454 1390 1236 1090 1260 1571 1036 1336 1602 1455 252 20 444 770 2 0 0 0 0 0 0 0 0 0
3252 2925 2732 2758 2809 2621 2328 2296 2212 2254 2358 2413 2157 1994 1881 1900 2374 2889 2963 3094 2616 2514 2533 2808 3085 3143 3020 2869 2770 2655 2809 3287 3374 4345 4311 4158 3954 3960 3783 3969 3953 3694 3038 3275 3038 2560 2696 2146 1802 1558 1401 1243 2037 2445 2099 2054 2276 2033 1860 1625 1598 1418 1274 1053 906 854 937 269 580 899 1038 62 0 11 565 0 0 0 0 0 0 0 0 0 0
2841 2982 2984 2736 2744 2686 2446 2451 2367 2204 2282 2256 1982 1725 1635 1556 1495 2112 2533 2795 3243 2927 2227 2390 2339 2340 3064 3412 3049 2825 2832 4006 3327 2774 3320 4081 3421 3142 3609 4041 3482 2324 2302 1877 1708 2343 2451 2762 1678 1863 2106 2382 2609 2326 1981 1762 1704 1745 1688 1757 1763 1250 1141 882 853 455 202 82 163 292 496 139 0 0 60 53 0 0 0 0 0 0 0 0 0
2984 2823 2574 2531 2621 2775 2651 2574 2654 2330 1855 1992 1907 1629 1505 1409 1415 1384 2924 3057 3110 2953 2972 2912 2268 2298 3437 3317 3433 3299 3198 3615 4004 3678 3188 2976 3521 3545 3413 3123 3391 2939 1811 1488 1696 1848 1890 2242 2734 2608 2382 2357 2193 2073 1778 1632 1598 1612 1704 1449 1464 1054 879 618 532 540 128 2 19 62 319 8 0 5 53 69 0 0 0 0 0 0 0 0 0
2851 2911 2748 2663 2600 2557 2432 2396 2328 2212 1770 1670 1436 1341 1372 1403 1414 1459 2090 2046 2093 2476 2778 2950 3580 3440 2739 3168 3466 3231 3221 3656 3687 3494 2995 3045 3196 2724 2558 2397 2524 2866 2640 2044 2144 2410 2297 2100 2396 2210 1709 1624 1404 1382 1219 1334 1318 1240 1018 953 643 408 489 627 462 478 241 21 0 27 33 10 2 0 43 84 0 0 0 0 0 0 0 0 0
2505 2731 2887 2541 2522 2589 2496 2324 1944 1945 1486 1024 1004 1124 1198 1262 1291 1319 1545 2128 2406 2406 2443 2608 2660 2908 2817 2758 2992 2864 2779 3354 2749 1646 1795 2744 2889 2418 2477 2249 2649 2143 1170 961 905 1042 1398 1599 1604 1293 1259 1125 929 765 606 560 393 710 468 428 154 257 168 97 38 2 167 0 0 0 0 13 2 0 0 65 0 0 0 0 0 0 0 0 0
2009 2074 2048 1820 1670 1715 1831 1750 1752 1932 770 791 837 920 1027 1106 1139 1200 1844 2053 2204 2211 2188 2338 2400 2408 2598 2834 2837 2438 2658 3084 1335 1046 986 898 2479 2372 2279 2107 2240 2096 1175 685 765 834 927 942 894 808 667 581 483 391 298 246 146 46 42 31 0 0 0 0 0 0 2 0 0 0 0 4 0 0 0 27 11 0 0 0 0 0 0 0 0
1325 1702 1355 1131 971 920 840 707 816 764 678 707 721 758 827 914 1012 1298 1978 2228 2318 2431 2371 2716 2726 2440 2070 1808 1520 2101 2094 1246 810 755 710 721 2073 2456 2145 1884 2407 1941 1396 683 663 611 552 548 503 498 440 428 339 267 195 116 56 0 0 0 0 0 0 0 0 0 0 1 0 0 0 2 0 0 0 0 28 0 0 0 0 0 0 0 0
737 740 861 883 811 754 750 782 781 772 713 672 662 688 743 774 869 940 1207 1601 1755 1998 2145 1994 1764 1601 1504 1303 1052 967 803 852 804 748 706 742 1666 1957 2014 1939 2032 1884 1491 757 660 567 450 470 442 388 354 334 274 160 80 40 0 0 0 0 0 0 0 0 0 0 0 0 0 0 0 0 0 0 0 0 0 39 0 0 0 0 0 0 0
Wind_Speed
14 14 14 14 14 15 15 15 15 15 16 17 20 21 19 18 16 16 15 16 16 16 16 16 15 13 13 14 12 10 9 8 8 7 7 7 7 6 10 13 15 15 16 16 16 17 17 17 17 18 18 18 18 18 18 17 17 17 18 18 18 18 18 18 19 19 18 17 17 18 18 17 15 14 13 13 13 14 14 13 13 12 12 11 12
15 15 15 15 15 14 15 15 15 16 16 17 20 21 19 18 17 16 16 15 16 15 16 16 16 15 13 14 12 11 8 7 6 6 6 5 5 5 9 13 15 15 16 16 16 17 17 18 18 17 17 18 18 18 18 18 18 18 17 18 19 19 18 18 19 18 18 17 17 17 16 15 13 12 12 13 14 15 15 15 14 13 12 11 12
14 15 15 16 15 15 15 15 16 17 18 18 20 21 19 18 17 16 16 16 16 16 16 16 15 15 13 14 12 10 9 7 7 5 5 4 4 5 6 12 14 15 15 15 16 17 18 18 18 19 19 19 19 20 19 19 19 18 18 19 19 19 18 18 18 18 18 18 17 17 16 15 15 14 14 15 16 16 16 16 16 15 13 13 13
14 15 16 16 16 15 15 16 17 18 19 20 21 20 19 18 16 15 15 15 16 16 15 15 15 14 14 13 12 11 9 8 7 5 5 4 4 5 6 8 12 15 15 14 14 15 17 18 19 20 20 20 21 21 21 20 20 19 19 20 20 19 18 18 18 18 18 18 18 18 18 18 17 17 17 18 18 18 18 18 18 17 16 14 13
16 16 16 16 16 16 15 17 18 19 21 22 20 19 18 17 16 16 15 16 17 16 16 15 14 14 14 13 12 11 9 8 7 6 4 4 5 5 6 7 7 12 15 15 15 15 16 17 18 19 20 20 21 21 21 20 19 19 20 20 19 19 18 18 17 17 17 17 18 19 20 20 20 19 20 21 21 21 21 21 20 19 18 16 15
17 17 17 16 16 16 17 18 19 21 21 21 20 18 17 16 16 16 16 16 16 16 16 16 14 13 13 13 12 12 10 9 8 6 5 5 3 5 5 6 6 7 9 14 15 15 16 17 17 18 18 19 20 20 19 19 19 18 19 19 18 18 18 18 18 17 17 18 20 21 22 22 22 22 23 23 23 23 23 23 22 22 21 20 19
18 18 17 17 16 16 18 19 20 21 21 20 19 16 15 15 15 16 17 15 17 16 16 15 14 13 12 12 12 11 10 9 8 7 6 4 4 4 4 5 5 6 8 8 13 17 17 16 16 17 18 19 19 19 19 19 18 17 18 18 17 17 17 17 17 16 17 20 22 23 24 24 24 24 25 26 26 25 25 25 25 24 24 23 23
18 18 18 17 18 18 19 20 21 20 19 19 17 15 14 14 15 15 17 18 18 17 15 14 13 13 12 11 9 9 9 8 8 7 5 4 3 3 3 4 5 5 6 7 8 10 16 16 16 16 17 18 18 18 18 17 17 16 17 17 17 17 16 17 17 17 19 21 23 24 25 26 26 26 28 29 29 28 27 27 27 27 26 25 25
18 19 20 19 19 20 19 21 21 20 18 17 15 14 14 14 13 14 16 18 19 19 17 15 14 13 11 10 9 8 9 8 7 6 5 4 3 2 3 3 4 6 6 7 8 8 13 16 15 17 17 17 17 17 17 16 16 16 16 17 17 17 16 17 17 18 20 22 25 26 27 28 28 29 31 32 31 30 29 29 30 30 28 27 26
19 20 21 21 21 21 21 21 20 18 17 15 14 13 13 13 14 15 17 19 19 20 20 18 15 13 11 11 9 9 9 8 7 6 5 4 2 1 2 2 3 4 5 6 7 9 9 13 17 18 19 18 16 15 15 15 15 15 15 16 17 17 17 17 17 18 21 23 25 27 28 29 30 32 34 34 33 32 31 31 32 33 33 31 29
20 21 22 21 21 20 20 20 19 17 16 14 12 13 13 13 14 17 18 19 19 19 19 18 15 14 13 12 10 9 9 8 7 5 5 5 4 2 1 3 3 4 6 7 8 9 10 9 11 11 13 18 16 16 14 14 14 14 15 16 16 18 18 17 17 18 21 23 25 27 29 30 31 33 34 34 33 32 32 32 33 34 34 34 33
20 20 20 20 20 19 18 17 16 15 14 13 13 13 14 14 15 17 20 18 16 18 18 17 14 13 13 13 10 10 9 8 7 6 5 4 3 3 2 2 3 3 4 6 7 7 9 10 11 12 11 14 16 15 15 14 13 13 14 15 16 18 18 17 17 18 20 22 24 25 27 29 31 32 33 33 32 32 33 34 34 34 35 35 34
18 18 18 18 17 17 16 15 14 13 13 12 13 15 15 14 15 15 19 19 18 19 17 16 14 12 12 13 11 9 8 7 8 8 6 5 3 1 2 1 3 4 5 6 7 8 9 11 11 12 13 12 14 18 18 15 14 14 14 14 15 17 17 16 17 18 19 21 22 23 25 27 29 30 31 32 32 33 34 35 35 36 36 36 35
16 16 15 15 15 14 13 13 12 12 12 12 13 14 16 16 18 17 16 18 16 18 18 16 13 14 14 13 11 8 7 7 7 7 6 4 3 1 2 1 2 4 6 7 8 9 9 10 12 12 12 12 13 13 14 14 15 15 14 13 13 14 15 15 16 17 18 19 19 20 21 23 26 28 29 30 31 33 34 35 36 36 37 37 37
14 14 14 14 14 13 12 11 11 11 12 13 14 15 16 18 19 19 18 14 13 14 16 17 14 12 11 12 11 11 7 8 8 8 8 7 4 3 2 1 2 4 5 6 7 8 8 9 10 11 12 13 13 13 13 13 13 12 12 11 12 13 14 14 16 17 17 17 17 17 18 20 22 24 26 28 30 32 34 34 35 36 37 38 38
12 13 12 12 13 12 11 10 10 10 11 13 14 15 16 16 18 19 19 16 14 14 14 13 13 12 12 12 11 11 10 9 10 7 7 7 8 6 4 2 4 4 6 7 7 7 9 10 10 12 13 14 13 13 14 14 12 14 13 11 11 11 12 14 14 15 16 16 15 15 16 17 19 22 23 26 28 31 33 34 35 35 37 38 38
11 11 11 11 11 10 10 10 10 10 11 12 13 15 15 15 16 17 18 17 15 13 12 13 12 13 12 10 9 8 10 10 11 6 9 8 9 7 5 3 5 4 5 7 7 8 8 9 10 12 12 13 13 13 13 13 12 11 10 10 9 8 9 12 14 14 14 14 14 14 14 15 17 19 21 24 27 29 32 34 35 36 37 38 39
10 10 10 10 9 9 10 10 9 9 11 12 12 13 13 14 15 16 16 16 15 14 12 11 12 12 11 10 11 10 9 10 8 7 6 7 6 7 6 7 6 7 8 8 9 8 8 7 9 11 11 12 13 13 12 12 12 11 9 6 4 5 8 11 13 13 13 13 12 12 13 13 13 15 17 21 23 25 28 31 34 36 37 38 39
9 9 8 8 9 9 9 9 9 9 10 10 10 11 11 12 13 14 14 15 15 14 14 12 10 9 9 8 7 7 7 8 8 6 6 6 7 6 6 8 8 8 8 8 8 7 7 8 8 10 11 12 13 14 13 12 11 10 9 7 5 6 7 10 11 12 12 11 10 9 9 10 11 12 13 16 18 20 23 26 30 34 36 37 38
9 7 8 8 8 8 8 9 9 9 9 9 10 10 10 9 10 10 10 11 12 13 13 12 10 9 10 8 7 6 5 6 6 7 4 3 4 4 6 7 7 8 8 8 9 9 9 9 9 11 13 13 13 14 14 12 11 10 9 6 2 3 5 7 9 10 9 8 8 8 9 10 10 11 12 14 17 19 21 24 28 32 34 36 37
8 7 7 8 8 8 8 8 8 8 8 7 8 9 9 9 8 9 9 8 9 9 10 10 10 9 9 9 8 6 6 6 5 4 4 2 3 5 5 6 8 9 9 10 11 12 13 13 13 13 14 14 13 13 14 13 11 11 8 4 2 1 3 5 8 8 8 8 8 9 9 8 8 8 9 12 15 17 20 22 26 30 33 35 37
7 7 7 7 8 7 8 8 8 7 7 7 8 8 7 6 6 6 7 7 8 8 9 9 8 8 9 8 8 7 4 4 5 5 7 6 5 5 5 5 7 9 9 11 12 13 13 14 14 14 14 14 13 12 13 12 11 9 7 5 4 2 1 3 5 7 7 9 10 12 9 6 6 6 7 9 12 14 16 19 23 26 30 33 35
8 7 7 8 8 8 8 7 7 6 6 7 7 7 7 5 5 4 5 7 7 8 7 7 7 7 7 7 6 6 5 5 6 6 6 7 6 6 7 7 6 7 9 10 11 13 13 14 14 15 14 13 12 12 12 12 10 7 5 9 4 3 1 2 3 5 6 8 11 11 9 9 8 8 7 8 10 11 14 17 19 21 26 31 34
8 7 7 8 7 8 9 8 7 7 6 6 7 7 7 6 5 4 5 5 6 7 7 6 6 6 6 6 5 5 7 5 7 8 7 8 7 7 8 8 9 9 10 9 11 11 11 13 14 15 15 14 13 11 11 10 11 8 1 10 4 3 2 1 2 4 6 9 11 11 11 11 11 11 10 10 10 10 12 14 16 18 21 26 31
8 8 8 8 7 8 8 8 8 7 7 7 6 6 6 6 6 5 5 5 5 5 5 5 5 5 5 6 5 6 7 7 7 6 9 9 10 8 9 9 8 8 9 9 9 10 11 12 14 14 15 13 12 10 9 9 9 6 1 10 5 3 3 2 2 3 7 9 10 11 12 13 12 12 10 9 8 9 11 12 14 18 21 24 27
7 8 7 6 7 7 7 8 8 8 7 6 6 6 6 6 6 6 5 5 4 4 3 4 3 4 5 5 5 7 7 8 8 7 7 8 8 8 8 8 8 8 10 9 10 10 10 10 12 14 13 11 10 9 7 7 8 4 1 5 8 5 5 3 2 4 6 8 8 10 11 13 13 12 9 7 7 7 8 10 12 16 20 23 24
6 6 5 5 6 7 7 8 7 7 6 6 6 5 5 5 5 5 5 4 4 4 3 3 3 4 4 5 5 5 7 7 7 8 7 7 7 7 7 5 5 6 7 8 9 10 10 9 7 10 10 9 8 8 6 7 8 4 2 7 7 8 6 3 2 4 6 7 9 9 11 12 12 9 7 6 7 6 6 8 10 13 17 20 20
4 5 5 5 5 6 6 8 7 7 6 6 6 6 4 5 4 4 3 3 3 2 3 2 2 3 3 5 4 4 5 5 6 6 6 7 6 5 6 6 5 4 5 5 4 8 10 8 8 6 6 7 6 7 7 6 7 4 6 5 5 6 7 3 2 4 5 7 9 9 11 12 12 9 7 5 5 6 6 7 8 11 15 17 17
3 3 4 4 4 5 6 6 6 6 7 7 7 6 5 5 4 3 3 2 2 2 2 1 1 2 2 3 3 3 4 5 5 5 6 4 4 5 5 4 5 4 3 3 4 3 7 6 6 7 4 5 6 6 6 6 4 4 5 4 4 5 5 2 3 4 6 7 9 10 11 12 11 9 6 5 5 5 6 8 9 10 13 14 14
3 3 3 4 3 3 5 5 6 6 7 7 6 6 5 6 5 4 4 4 3 2 2 2 2 2 2 2 3 2 4 3 3 3 4 3 4 5 5 5 5 5 5 6 5 5 5 6 6 6 7 5 6 5 6 6 6 5 4 3 4 5 2 2 4 4 7 9 10 11 12 13 11 9 7 6 6 6 7 8 9 10 11 11 11
3 3 2 2 2 3 3 5 5 6 6 6 6 6 5 5 4 4 2 2 3 3 2 2 2 3 4 3 3 2 3 2 1 1 3 3 3 4 5 5 6 7 8 8 6 7 5 5 4 4 5 5 4 4 3 4 6 4 4 4 3 2 5 7 7 7 8 10 11 12 12 11 9 8 7 7 7 7 8 8 9 10 10 10 10
3 3 2 1 2 3 3 4 5 6 5 5 5 4 4 4 5 4 3 3 3 3 3 2 3 4 4 3 3 3 2 2 1 1 3 4 4 4 5 6 8 8 8 8 7 4 5 5 4 4 3 3 5 4 3 4 7 9 4 5 4 7 5 6 10 13 9 11 11 11 11 9 8 7 7 7 8 8 7 8 9 10 11 10 10
3 3 2 1 1 2 4 4 4 4 4 4 3 3 3 3 3 3 3 3 3 2 2 2 2 3 3 3 3 3 2 1 2 2 3 4 6 6 7 7 7 9 8 8 7 5 5 6 6 5 3 3 3 5 2 1 0 2 1 5 5 5 5 7 8 18 13 12 10 10 9 8 8 7 7 7 7 8 6 6 7 8 9 10 9
4 3 2 1 1 2 3 4 4 4 3 2 3 2 2 2 3 1 1 0 0 1 2 2 2 3 3 3 3 3 4 4 4 4 4 5 5 5 7 7 6 7 9 7 6 5 4 5 5 4 4 7 5 7 4 2 2 2 2 4 5 6 7 7 9 14 18 11 9 9 7 7 7 7 7 7 8 8 6 6 6 7 8 8 7
5 4 3 2 3 3 3 4 3 3 3 3 2 1 1 1 1 1 1 2 2 2 2 2 3 4 4 3 3 4 5 5 5 6 6 6 6 6 5 6 6 6 9 9 7 5 3 2 3 3 5 6 6 7 7 7 6 7 6 6 6 7 7 6 9 11 19 10 10 9 7 8 7 7 8 8 9 8 6 5 5 4 4 5 4
5 6 4 4 5 5 4 4 3 3 3 2 2 2 1 1 1 1 1 2 2 3 3 3 3 4 4 4 3 4 5 5 5 6 6 7 7 7 6 7 7 6 7 10 10 8 6 4 4 3 4 5 8 10 12 11 9 10 9 9 9 10 8 7 8 10 13 11 11 9 7 8 8 8 9 9 9 9 7 6 3 3 3 2 2
6 6 7 6 6 6 5 5 5 4 4 4 4 3 3 3 2 2 2 3 3 3 3 3 3 3 3 3 4 5 5 5 5 6 6 6 7 6 6 7 8 9 9 10 11 11 10 8 6 8 8 8 9 11 14 13 13 13 12 11 10 11 11 8 8 10 12 15 16 13 9 11 9 10 10 10 10 10 10 7 5 3 2 2 2
7 6 6 7 7 7 6 6 7 7 7 7 6 5 4 4 4 3 3 3 3 4 3 3 4 4 4 4 5 5 5 5 5 6 6 5 6 6 6 8 10 11 11 10 11 11 10 9 8 7 9 8 9 11 13 14 13 13 13 12 10 11 9 8 8 10 9 9 8 9 12 12 15 15 11 13 13 11 10 11 9 6 5 4 4
7 7 7 7 8 7 7 7 7 8 8 8 9 8 7 6 6 6 5 5 5 6 5 4 4 5 5 5 6 6 6 6 5 5 6 6 7 7 8 9 10 11 10 10 11 11 10 9 9 9 8 10 10 9 13 13 13 14 12 12 11 11 10 7 6 9 10 8 9 16 13 11 13 12 14 16 14 15 10 12 13 11 9 8 7
9 8 8 8 8 8 7 8 9 9 10 11 11 10 9 9 9 8 8 8 8 8 7 6 5 5 6 6 5 6 7 8 8 7 7 8 9 9 9 10 12 12 10 10 11 10 10 9 9 8 10 10 10 10 11 13 12 13 13 11 10 11 12 10 8 9 13 9 9 11 13 13 18 17 18 19 16 15 16 12 16 14 12 11 12
11 10 10 10 10 9 10 10 11 12 12 13 13 13 12 11 11 10 11 11 10 10 9 8 8 8 8 8 7 7 9 10 9 8 7 9 11 11 11 11 12 13 13 13 13 12 12 12 11 12 12 12 11 11 11 12 12 12 12 11 11 12 13 12 12 13 15 13 12 13 13 nan 12 12 12 nan nan nan nan nan nan nan 14 13 14
12 13 12 12 11 11 12 12 12 13 14 15 16 14 13 14 14 14 14 13 13 13 12 11 10 10 10 10 10 10 10 8 7 9 9 11 13 11 12 12 13 14 14 14 14 14 14 13 13 12 12 12 11 13 13 13 14 14 13 14 13 14 13 13 14 17 18 16 13 15 14 nan 12 13 12 nan nan nan nan nan nan nan nan nan 16
14 15 14 13 13 13 13 13 13 14 15 16 17 17 15 13 14 16 16 15 14 15 15 15 13 12 12 12 12 13 14 12 11 10 15 21 18 16 14 12 13 15 15 15 15 16 16 15 15 15 14 14 15 16 15 15 16 16 15 15 15 15 15 14 13 17 23 19 16 16 17 15 nan 14 15 nan nan nan nan nan nan nan nan nan nan
18 16 15 15 15 15 15 15 14 14 15 17 18 18 17 17 17 16 15 15 16 15 15 14 15 15 15 14 15 16 16 16 15 18 19 20 21 20 20 20 19 17 17 18 19 18 19 17 17 16 16 16 18 19 18 19 18 17 16 16 17 18 16 15 16 17 24 23 19 19 20 nan nan nan 19 nan nan nan nan nan nan nan nan nan nan
20 19 18 18 17 17 16 15 15 14 15 18 19 18 18 17 16 16 15 15 16 17 16 16 16 17 18 18 17 18 19 24 20 18 19 20 23 22 22 25 28 27 25 24 22 20 20 19 17 17 19 20 19 20 22 22 20 17 17 19 20 19 19 17 18 18 25 nan 23 23 22 25 nan nan nan nan nan nan nan nan nan nan nan nan nan
23 22 21 20 21 20 19 17 16 17 16 30 27 22 19 19 20 21 18 18 18 18 18 18 19 18 20 19 20 20 20 21 22 21 20 19 20 22 22 22 24 30 30 30 29 27 23 21 21 19 22 23 21 23 23 23 21 21 22 21 22 21 21 18 17 20 28 nan nan nan 25 nan nan nan nan nan nan nan nan nan nan nan nan nan nan
25 25 25 25 24 23 21 21 21 20 28 36 34 32 31 28 28 23 20 19 20 21 21 20 21 20 20 20 20 20 20 21 22 23 21 21 22 22 22 22 24 25 26 25 26 26 25 24 23 24 25 26 26 26 28 27 27 28 27 25 24 23 21 19 19 23 29 nan nan nan nan nan nan nan nan nan nan nan nan nan nan nan nan nan nan
28 29 29 27 26 26 26 27 26 24 34 38 35 33 33 31 29 25 23 23 22 23 23 24 23 23 23 22 21 20 21 22 33 33 28 25 23 22 22 23 25 27 29 30 28 28 28 28 26 28 31 32 33 33 32 31 32 31 29 27 26 25 24 nan nan nan 27 nan nan nan nan nan nan nan nan nan nan nan nan nan nan nan nan nan nan
28 29 30 31 32 32 31 30 29 31 35 37 36 35 34 32 28 27 26 26 26 25 26 26 26 25 26 26 25 23 24 27 34 33 30 26 24 23 22 22 24 26 29 32 34 37 38 40 41 40 39 39 39 39 39 36 31 nan nan nan nan nan nan nan nan nan nan nan nan nan nan nan nan nan nan nan nan nan nan nan nan nan nan nan nan
25 31 34 34 35 35 35 35 33 32 35 37 36 35 34 34 30 28 29 28 27 28 28 30 32 31 28 30 28 29 29 33 36 31 29 28 26 26 25 24 26 27 28 32 35 36 39 40 38 38 38 39 40 41 39 37 nan nan nan nan nan nan nan nan nan nan nan nan nan nan nan nan nan nan nan nan nan nan nan nan nan nan nan nan nan
28 31 33 36 35 36 37 37 40 37 35 37 38 35 34 34 32 32 31 29 27 27 29 29 33 33 38 41 44 41 38 38 37 35 33 28 27 27 27 25 26 26 30 36 39 39 38 38 37 36 36 34 35 36 nan nan nan nan nan nan nan nan nan nan nan nan nan nan nan nan nan nan nan nan nan nan nan nan nan nan nan nan nan nan nan
Wind_Direction
152 152 146 140 133 132 134 139 142 145 144 144 143 144 144 142 140 136 131 128 125 124 122 124 123 122 121 120 117 120 122 114 109 104 104 101 95 80 59 64 68 72 75 76 75 72 72 71 68 63 63 62 62 61 60 58 57 58 59 61 63 63 65 67 69 70 71 72 71 70 69 70 66 62 60 59 57 54 55 53 50 52 50 46 39
153 150 145 141 136 136 136 140 143 144 144 148 145 144 144 141 140 138 136 132 130 126 122 127 130 129 122 120 121 130 127 118 109 108 107 104 99 86 50 57 57 63 66 68 69 70 69 69 68 66 62 60 59 58 57 56 56 57 58 60 63 64 65 65 66 68 69 71 72 73 73 72 69 62 58 53 47 45 44 44 44 46 48 43 36
151 148 144 140 137 137 140 142 145 145 141 147 148 146 144 143 143 141 139 136 132 128 125 128 130 126 125 121 126 128 132 127 119 111 111 106 95 83 53 47 52 54 61 62 62 64 65 65 64 63 62 61 61 59 57 56 55 55 57 60 62 64 65 62 62 65 67 69 70 70 70 66 62 55 55 51 48 47 45 42 40 36 33 35 33
147 144 144 141 140 141 144 146 146 143 142 147 150 149 146 144 142 138 135 135 133 128 126 126 128 127 122 123 128 132 136 135 131 142 124 94 72 63 57 44 39 48 52 54 58 58 59 59 60 59 57 57 57 56 55 55 54 55 57 59 61 64 63 62 59 63 66 68 69 67 64 61 56 52 49 48 47 47 44 40 36 29 27 29 28
141 142 143 142 143 144 147 147 146 145 145 148 152 151 150 148 149 143 144 141 136 134 128 128 128 130 127 133 137 141 142 134 135 122 112 80 55 53 47 44 41 28 40 47 48 52 53 54 55 54 53 54 55 55 55 55 57 58 60 62 63 63 63 62 61 63 66 67 66 66 63 60 56 52 49 48 46 44 42 38 33 30 28 28 27
141 143 141 142 143 146 147 148 148 148 148 149 154 157 156 154 152 146 145 140 138 136 133 132 135 137 142 150 147 150 145 138 134 132 110 89 70 55 40 33 32 37 29 25 37 41 44 46 48 49 50 51 53 54 55 56 59 61 63 65 64 62 62 62 61 61 63 63 63 62 61 60 57 53 50 49 47 42 38 36 33 31 28 28 26
144 143 142 142 144 147 149 149 149 150 152 154 153 159 157 155 150 148 145 142 140 134 133 134 138 149 156 156 157 152 142 136 132 123 104 94 71 61 46 33 28 30 27 27 14 24 32 37 40 45 47 48 48 51 53 54 58 62 63 65 64 60 60 61 60 57 56 57 58 59 58 58 56 53 52 50 47 43 39 36 35 34 30 27 26
143 141 141 145 148 148 150 149 150 152 155 155 153 157 154 151 152 147 145 145 138 137 134 135 142 153 163 157 156 145 135 133 127 121 125 101 81 57 41 25 19 17 20 21 17 12 13 27 33 40 45 47 48 49 50 51 55 59 60 62 60 57 56 59 56 52 52 53 55 56 55 56 56 55 53 51 49 44 40 39 39 38 35 32 29
141 141 141 145 147 148 150 152 151 155 155 155 152 152 152 152 151 152 144 137 137 140 141 142 146 152 157 157 156 144 142 138 132 133 123 104 76 52 20 15 4 9 10 8 8 10 6 14 27 33 40 43 45 45 46 48 52 55 56 57 56 54 53 55 52 49 50 51 52 53 53 54 56 56 55 54 51 46 43 41 41 41 39 37 35
140 140 141 144 146 148 150 152 151 153 154 153 152 149 150 152 155 153 147 140 142 146 147 149 147 148 146 152 151 145 147 138 139 129 124 116 89 62 18 354 358 2 1 4 8 3 5 4 13 28 32 35 36 39 41 44 46 49 52 53 53 52 51 49 48 47 48 48 50 51 51 53 54 55 55 54 51 47 44 41 39 39 38 37 36
137 138 140 142 145 148 148 151 151 153 154 154 156 154 153 155 157 154 146 147 148 151 152 147 145 140 142 150 151 148 146 144 134 134 135 146 166 159 311 328 333 345 354 356 356 357 2 7 10 13 11 10 25 31 35 39 43 47 50 50 50 48 50 48 48 48 48 47 47 49 49 50 52 53 53 52 49 45 41 39 37 37 37 35 33
134 137 139 142 144 147 148 149 154 155 156 161 162 155 154 155 160 153 151 153 154 154 154 146 140 142 146 143 146 143 138 139 132 138 142 147 168 185 201 265 311 332 343 344 346 1 6 10 12 16 17 10 11 23 27 30 40 45 47 49 46 48 48 46 52 52 50 49 47 48 49 50 51 50 50 49 47 44 39 37 35 34 34 33 31
133 134 137 140 143 146 146 150 152 159 159 162 160 157 153 153 155 152 154 158 163 159 158 147 144 148 146 149 149 143 139 135 142 147 153 161 173 194 253 288 324 339 337 340 354 6 9 9 13 18 15 9 7 8 14 22 33 38 38 44 45 49 50 48 51 56 55 49 49 51 50 50 50 48 47 46 44 40 37 34 32 30 30 30 29
132 133 137 140 143 144 145 151 155 162 160 155 158 159 160 160 159 159 160 162 165 163 159 143 153 157 153 152 151 155 164 151 160 169 167 176 187 233 288 325 333 327 327 336 352 3 11 7 11 18 14 10 8 5 2 8 18 20 27 35 43 49 53 54 56 61 60 55 55 55 53 51 50 47 44 43 41 38 34 31 30 28 26 28 29
130 132 137 140 142 140 143 151 157 159 156 159 160 164 163 163 164 164 161 163 165 165 161 152 159 155 150 140 158 154 168 163 166 178 182 194 209 229 252 303 303 306 322 342 349 359 9 11 16 15 12 12 7 2 5 14 20 25 34 39 42 46 54 57 59 61 61 57 58 57 54 49 47 45 42 40 38 34 31 28 28 27 26 27 28
127 131 136 142 143 142 146 151 158 155 156 159 162 166 166 164 166 168 162 164 174 176 169 166 157 151 149 156 158 153 155 168 161 176 186 212 217 224 234 263 289 302 331 336 336 351 3 10 14 11 11 9 2 358 8 12 14 20 25 31 37 39 46 56 60 63 61 60 61 59 56 49 44 41 38 38 35 30 27 25 25 26 26 27 27
123 128 136 145 149 149 152 157 160 158 157 159 166 167 168 166 167 168 172 168 173 174 175 171 172 159 152 147 150 154 164 167 165 196 194 216 223 223 225 228 263 287 306 310 331 346 354 4 5 7 8 4 355 357 8 9 3 3 12 17 21 36 47 51 58 62 62 60 60 58 57 52 44 39 36 36 34 28 23 22 22 24 25 26 26
114 123 132 141 149 152 154 154 159 161 160 164 167 165 168 170 174 170 174 176 169 174 180 178 174 171 163 155 158 168 166 171 163 197 197 222 233 241 246 258 278 292 307 314 315 330 340 350 358 360 359 355 349 353 357 357 355 358 357 1 36 52 51 52 55 58 58 58 60 58 57 54 48 41 35 35 35 29 24 21 21 22 24 25 25
104 113 124 133 143 151 151 149 155 158 162 162 165 167 172 174 176 176 176 175 175 183 181 178 168 169 177 178 171 164 169 173 198 192 218 239 241 255 264 274 283 291 302 311 320 331 339 349 357 350 345 345 342 343 347 347 351 354 8 18 35 43 48 50 52 52 57 56 60 57 60 56 51 44 36 35 34 30 25 21 22 23 24 26 24
102 108 118 127 137 144 146 146 148 155 160 163 170 172 172 175 181 180 176 178 182 185 185 183 180 188 190 194 209 206 196 198 210 211 217 223 273 298 303 283 293 301 310 321 327 331 331 338 336 336 333 331 336 335 332 333 333 333 329 325 10 44 52 45 43 46 52 59 61 59 56 50 44 40 35 32 30 25 21 19 21 23 22 24 26
93 102 113 124 129 136 138 139 139 146 153 164 173 179 176 180 183 181 178 179 182 186 184 188 181 200 198 210 215 225 228 233 253 262 252 264 293 287 287 305 317 310 315 324 325 324 321 321 323 319 319 319 322 325 322 324 327 329 318 296 323 359 26 27 29 36 50 53 59 54 45 38 35 35 33 27 26 24 18 15 18 20 21 24 26
76 88 105 114 119 125 127 130 134 143 148 166 173 177 179 178 181 186 177 181 184 182 189 191 193 199 210 213 226 232 242 265 278 280 296 299 298 296 296 304 321 317 320 316 316 312 312 310 311 307 308 311 313 318 319 319 323 317 319 322 297 307 336 17 36 42 45 47 51 50 38 27 31 39 42 33 27 22 20 19 17 18 23 25 26
65 68 85 97 106 116 120 124 133 144 145 158 165 174 183 183 184 177 174 184 190 192 189 192 203 207 222 227 234 249 260 269 272 275 283 296 300 310 322 314 319 317 311 309 315 305 304 305 305 304 307 310 314 319 320 320 310 294 355 301 290 247 272 49 50 44 44 48 45 43 33 28 32 44 56 50 39 27 21 22 19 19 24 26 26
60 64 73 81 96 110 117 123 128 133 139 151 160 168 174 183 179 171 184 195 192 197 194 198 207 228 225 244 254 268 281 284 283 296 300 299 311 316 320 319 325 314 312 311 310 303 299 301 302 302 303 311 316 321 322 321 307 275 319 294 277 230 232 68 46 29 36 38 35 33 31 29 32 40 50 50 42 36 31 25 18 21 30 30 26
57 59 65 73 88 101 113 121 125 128 138 149 157 164 170 169 179 174 189 195 203 203 206 211 223 233 242 255 264 268 277 286 293 299 300 312 321 321 309 308 317 315 309 306 300 312 304 299 298 295 299 307 310 313 313 310 304 285 67 309 279 242 236 251 25 25 23 19 16 22 25 26 30 38 45 49 46 46 41 32 21 21 31 35 30
55 57 71 74 86 96 106 110 116 125 132 138 150 166 172 172 176 177 185 212 213 218 213 223 242 253 255 258 266 279 283 287 292 301 302 314 314 311 306 317 327 320 319 313 305 308 306 302 299 296 295 301 306 308 309 301 301 292 15 333 293 257 245 250 360 7 0 355 358 7 16 18 27 36 44 46 51 53 49 41 30 31 38 38 35
51 57 65 84 94 104 106 108 107 115 126 134 146 161 173 175 176 178 184 211 215 217 228 231 240 248 258 267 271 288 282 290 294 292 295 295 297 304 316 320 327 335 317 314 309 302 300 310 311 298 299 307 314 313 309 307 306 325 32 309 296 283 236 255 303 341 342 345 346 355 5 8 17 30 38 46 52 60 57 50 38 37 45 43 41
39 43 53 73 92 104 107 105 109 114 123 129 134 142 152 153 166 177 176 223 223 231 238 242 262 263 270 279 290 290 293 288 288 291 290 289 300 313 334 340 339 342 325 325 306 310 317 328 330 327 311 313 329 322 332 336 318 40 1 300 285 272 246 221 267 307 316 328 337 346 355 359 5 19 32 47 58 60 59 53 46 46 48 47 45
35 32 52 62 93 108 116 116 117 120 124 126 126 129 136 131 131 142 145 185 207 196 206 211 197 225 267 281 276 286 297 296 301 305 297 315 334 340 351 357 352 4 4 17 354 351 335 332 348 345 350 339 347 336 332 332 319 46 323 303 278 265 238 205 253 295 315 322 332 340 346 349 357 8 19 44 58 67 61 56 55 53 50 49 47
15 34 42 61 85 108 121 121 122 124 125 127 125 127 135 130 120 122 137 158 150 155 159 163 177 190 208 226 267 279 283 309 323 325 319 339 2 4 5 11 16 35 26 41 34 13 10 6 3 357 4 7 1 360 347 351 326 40 331 299 266 256 195 43 282 307 317 322 329 335 338 345 354 6 13 27 45 58 58 57 60 58 57 57 54
330 344 16 69 87 109 123 118 121 120 122 122 126 131 135 129 126 119 118 134 140 140 149 179 180 207 205 208 236 251 255 243 264 354 309 341 353 7 14 18 25 30 31 25 41 353 15 38 29 16 12 7 15 34 23 9 338 2 343 317 295 265 69 320 319 310 314 315 323 325 327 334 348 5 8 13 28 42 53 60 66 67 66 67 64
331 334 2 76 103 109 117 116 119 124 127 127 120 121 123 124 124 123 133 138 136 138 149 194 211 223 215 214 231 241 247 259 290 319 344 344 353 6 11 16 16 13 12 19 27 39 18 40 52 46 11 8 12 34 47 57 341 355 326 336 323 19 355 290 312 311 303 305 310 316 320 330 352 3 8 10 15 34 44 55 66 68 69 72 68
288 306 314 309 150 134 130 135 127 133 133 130 132 130 118 105 101 106 122 137 149 169 208 190 215 238 238 226 225 237 262 288 312 334 354 354 353 355 352 359 2 351 355 5 21 29 22 9 27 42 26 17 356 347 36 69 324 262 347 319 328 316 312 308 305 310 297 300 311 317 321 333 349 357 359 3 9 28 35 43 57 64 72 74 66
278 286 294 271 235 173 150 139 137 134 134 135 117 116 109 94 85 88 44 38 197 219 223 225 238 243 249 242 233 250 287 307 308 329 334 338 345 345 341 342 344 339 334 349 357 6 34 15 22 14 15 346 351 330 330 354 303 316 285 296 306 307 302 306 306 310 297 304 313 323 331 338 345 344 341 346 357 15 18 28 36 48 60 67 69
272 269 261 251 242 225 187 173 169 154 152 142 157 152 137 97 88 104 228 262 267 265 271 272 265 263 264 265 263 270 285 298 305 314 316 326 327 331 337 330 334 333 323 330 334 344 4 6 356 16 335 325 324 313 315 320 328 322 320 298 295 296 295 296 303 315 301 316 326 344 344 337 334 325 320 328 334 339 351 359 2 19 35 57 73
261 266 255 236 236 238 217 209 204 195 197 197 197 222 265 279 275 301 292 284 271 278 280 271 275 281 280 278 282 274 272 285 294 300 312 317 321 325 329 324 324 327 320 321 327 327 324 330 328 328 305 304 307 306 307 309 305 296 295 293 298 297 294 297 302 308 309 325 340 345 343 331 315 307 306 309 315 314 317 324 325 332 351 13 47
259 253 255 245 234 236 230 232 232 231 226 228 237 226 241 256 266 259 265 275 282 283 281 278 276 285 288 297 296 295 291 290 296 307 308 312 306 305 312 310 312 314 314 317 319 320 320 324 318 315 309 309 303 297 298 294 296 300 299 294 288 291 292 294 294 299 318 333 334 328 335 323 296 300 295 295 294 302 298 297 288 276 287 300 304
257 257 252 248 244 241 239 235 236 239 241 243 246 242 239 249 257 255 259 269 277 280 285 291 293 292 294 296 300 302 301 297 293 294 295 295 299 306 307 305 304 307 315 319 319 319 322 321 317 312 311 300 295 294 294 293 292 293 297 298 298 293 287 281 280 288 293 294 296 304 325 322 301 303 292 296 282 281 298 286 274 263 261 262 262
248 247 250 251 251 246 245 240 235 241 246 249 252 254 251 251 255 258 255 263 269 271 275 278 280 286 291 296 298 302 303 300 298 297 294 296 295 299 304 301 298 301 305 310 313 319 322 322 318 317 309 305 302 296 297 292 299 299 290 289 293 292 290 280 274 281 280 277 294 319 315 317 308 301 305 297 288 272 261 287 268 261 258 261 262
239 236 233 238 245 247 245 243 242 244 248 249 254 255 256 258 263 267 268 267 268 273 274 273 273 275 279 284 289 291 295 296 297 292 293 291 289 289 290 292 291 295 294 296 301 306 311 314 313 306 303 298 305 306 304 304 298 298 291 287 284 283 287 292 289 279 278 278 275 286 308 312 316 315 322 300 277 283 262 264 266 261 254 261 264
235 235 233 230 232 234 238 240 240 243 244 248 251 256 259 264 264 265 270 271 273 273 272 273 275 277 278 279 284 283 279 289 297 301 295 287 284 285 282 282 289 292 293 293 297 299 302 304 306 308 308 306 307 306 296 291 286 283 285 279 276 278 283 289 293 289 282 278 282 282 286 nan 288 289 288 nan nan nan nan nan nan nan 255 258 259
239 238 235 233 233 234 235 239 241 241 244 247 258 268 265 257 261 263 268 273 274 273 272 272 274 279 283 281 277 273 281 292 300 307 318 321 319 303 288 289 289 291 290 291 293 295 295 297 301 300 300 300 293 291 291 289 289 288 281 275 276 276 281 286 296 291 283 278 279 280 281 nan 281 284 282 nan nan nan nan nan nan nan nan nan 259
239 240 238 234 235 235 236 237 240 243 245 249 268 278 280 274 259 258 259 262 272 278 281 280 276 272 273 276 274 281 286 288 292 302 296 294 297 306 305 300 292 287 285 287 288 289 292 294 294 296 296 294 292 288 291 288 285 280 279 279 279 279 281 280 282 291 285 280 284 288 287 279 nan 285 284 nan nan nan nan nan nan nan nan nan nan
243 239 237 236 236 235 236 238 241 244 246 257 274 279 279 281 280 271 266 266 265 267 264 267 270 273 269 266 270 271 274 277 275 286 292 296 295 296 292 292 293 296 282 280 281 284 287 287 287 287 287 289 290 291 287 284 282 281 280 280 280 280 277 277 279 280 285 283 287 289 291 nan nan nan 288 nan nan nan nan nan nan nan nan nan nan
242 244 244 241 240 241 240 241 242 247 254 269 283 282 283 282 283 278 272 271 270 272 274 273 270 264 265 268 266 266 267 284 286 285 285 290 292 289 289 287 279 277 279 278 276 277 278 283 282 281 283 281 286 285 281 281 284 283 279 279 279 277 276 276 279 281 284 nan 290 289 289 287 nan nan nan nan nan nan nan nan nan nan nan nan nan
250 250 248 249 250 251 251 251 251 248 246 248 254 260 262 263 267 272 270 274 276 273 273 275 272 272 269 268 268 269 271 280 282 283 284 285 284 285 285 284 281 281 283 284 285 284 283 282 281 283 281 280 280 278 280 283 283 280 279 278 275 273 274 277 283 288 289 nan nan nan 294 nan nan nan nan nan nan nan nan nan nan nan nan nan nan
251 254 257 258 258 258 258 259 255 254 257 252 256 257 258 260 264 269 270 266 266 270 272 272 272 269 267 266 267 270 273 278 279 279 280 280 280 280 279 280 280 280 279 280 281 283 286 285 285 282 281 280 280 281 284 286 284 284 283 282 279 279 282 285 287 292 292 nan nan nan nan nan nan nan nan nan nan nan nan nan nan nan nan nan nan
245 246 249 254 258 260 262 260 261 257 258 251 254 257 262 267 273 273 273 273 269 266 266 267 268 267 265 265 267 267 267 271 267 261 260 265 275 279 279 279 281 282 278 274 275 276 278 282 284 282 282 279 278 280 282 287 290 290 289 288 286 284 279 nan nan nan 290 nan nan nan nan nan nan nan nan nan nan nan nan nan nan nan nan nan nan
253 254 252 251 249 249 250 254 257 260 259 252 252 255 258 261 269 270 271 270 271 270 269 268 268 267 266 265 267 267 268 270 266 267 267 267 273 275 276 277 279 283 283 281 277 278 278 278 279 282 284 283 281 279 276 274 278 nan nan nan nan nan nan nan nan nan nan nan nan nan nan nan nan nan nan nan nan nan nan nan nan nan nan nan nan
248 254 255 253 252 254 255 253 251 257 258 252 249 253 257 258 259 263 266 268 268 269 269 269 268 266 263 263 262 265 266 264 261 264 268 274 277 280 281 283 284 285 289 290 287 284 285 285 285 286 286 287 286 280 275 273 nan nan nan nan nan nan nan nan nan nan nan nan nan nan nan nan nan nan nan nan nan nan nan nan nan nan nan nan nan
248 253 257 259 258 254 252 253 252 252 252 250 245 244 251 255 261 265 263 263 264 265 266 267 267 266 266 260 255 254 258 261 260 260 258 264 276 278 280 283 286 291 294 298 291 291 290 288 285 284 282 283 284 283 nan nan nan nan nan nan nan nan nan nan nan nan nan nan nan nan nan nan nan nan nan nan nan nan nan nan nan nan nan nan nan